Wind_Speed
17 17 17 17 17 17 17 18 18 18 18 18 18 19 20 20 21 21 21 22 22 22 22 22 23 23 23 23 23 23 23 23 23 23 23 23 23 23
19 20 20 20 21 21 21 22 22 23 23 23 23 23 24 25 25 25 26 26 27 27 27 27 27 27 27 27 27 27 27 26 27 27 27 27 27 26
21 22 23 24 24 24 24 25 25 26 27 28 28 28 28 29 29 30 30 30 30 31 31 32 32 32 31 31 31 31 31 31 31 31 31 31 31 31
23 24 25 26 26 27 27 27 28 28 29 30 31 32 32 33 33 34 34 34 34 34 35 35 36 36 36 36 36 36 36 36 36 36 36 36 36 35
25 25 26 27 28 28 29 29 30 31 32 32 34 35 35 36 36 37 37 37 37 38 39 39 39 40 40 40 41 41 41 41 41 41 41 41 40 40
26 27 27 28 29 30 30 32 33 34 35 35 36 37 39 39 39 39 40 41 41 42 42 42 42 43 43 43 44 44 45 45 45 45 45 45 44 44
27 27 28 29 30 31 32 33 35 36 37 38 39 39 40 41 42 43 43 44 45 46 46 46 46 46 46 46 46 47 48 48 48 48 49 48 48 47
28 28 29 30 32 33 34 36 37 38 40 41 42 43 44 45 46 47 48 48 48 49 51 51 52 51 50 50 50 50 50 50 51 50 50 50 51 50
30 31 32 33 34 36 38 38 40 42 43 44 45 46 47 48 49 50 51 51 51 52 54 53 54 55 55 54 54 54 54 54 54 53 53 53 53 52
32 34 35 36 38 38 40 41 42 43 44 46 47 48 50 51 52 53 53 54 54 55 57 57 56 56 56 56 56 57 57 57 57 57 56 56 56 56
34 36 37 38 39 40 41 43 44 45 47 48 49 51 52 53 54 56 56 57 58 58 60 61 61 61 60 59 59 60 60 60 59 59 59 59 59 59
37 38 40 41 42 43 45 46 47 49 50 51 53 54 55 57 58 60 61 62 62 63 63 64 65 65 64 63 63 63 62 62 62 61 61 61 61 61
39 40 41 42 44 45 47 48 50 52 53 54 56 57 59 61 62 63 64 65 66 66 66 67 67 67 68 66 64 64 64 64 64 63 63 62 63 63
41 42 44 45 46 48 50 52 53 55 57 59 60 62 63 64 65 66 66 66 66 66 67 67 67 67 67 66 64 63 63 64 63 63 63 63 63 63
43 45 47 48 50 51 53 55 57 58 60 61 62 63 64 65 65 64 64 63 63 64 64 63 63 63 63 63 62 61 60 59 60 61 61 61 61 62
46 48 49 51 53 55 56 57 58 59 60 60 61 61 61 61 60 60 59 59 59 58 58 59 59 59 58 58 58 56 55 55 55 56 56 57 57 58
49 50 52 54 55 56 57 58 59 59 60 59 59 59 58 58 57 56 55 54 53 53 52 52 53 53 53 53 51 51 51 51 50 50 50 49 49 50
51 52 54 55 56 57 57 57 58 57 57 56 56 55 54 53 52 51 50 49 49 49 49 48 48 48 47 46 47 46 46 45 44 44 44 44 43 44
53 54 55 55 55 55 55 54 54 53 53 52 51 50 49 48 47 46 45 45 45 44 44 44 43 42 41 39 40 43 42 40 39 39 39 39 38 38
53 53 53 53 52 51 51 50 50 49 48 47 46 46 45 44 43 42 41 41 40 40 40 40 40 39 38 36 33 34 37 36 36 35 35 35 34 34
51 51 51 50 49 48 47 47 46 45 44 43 42 42 41 40 40 39 38 38 37 37 36 36 35 35 34 32 31 30 31 32 33 32 32 32 31 31
48 47 46 46 45 44 44 44 43 42 41 40 39 38 38 37 37 36 35 35 35 34 34 32 32 31 31 30 28 27 27 29 30 30 30 29 28 27
44 44 43 43 42 42 41 40 39 38 38 37 37 37 36 35 34 34 33 33 33 32 30 29 29 29 28 27 26 25 25 25 25 25 26 27 26 25
Wind_Direction
259 262 265 269 272 275 277 279 281 281 281 281 283 284 286 287 288 289 289 290 290 290 290 290 289 288 288 288 287 286 285 283 282 280 279 278 278 277
261 265 268 270 271 273 276 278 280 281 283 282 282 283 284 285 286 286 287 287 287 287 287 286 286 286 286 285 285 284 283 282 281 280 279 278 277 277
263 266 269 270 272 273 275 277 279 281 282 283 283 283 283 283 283 284 284 284 285 285 285 284 284 284 283 283 282 282 281 280 280 279 279 278 277 276
265 268 270 272 273 273 275 276 278 280 281 282 283 283 283 283 284 284 284 283 283 282 282 283 283 282 281 281 280 280 279 279 278 277 277 276 275 275
268 271 273 275 275 275 276 277 279 280 281 282 283 284 284 283 284 284 284 283 282 282 281 281 281 280 279 279 279 278 278 277 277 276 275 274 274 274
271 274 275 276 276 277 277 278 279 281 282 283 284 284 284 284 284 284 284 283 283 283 283 283 282 280 279 278 277 277 277 277 276 276 274 273 273 272
275 276 277 279 279 279 279 279 281 282 282 283 284 284 284 284 284 284 284 283 283 282 282 282 281 281 280 278 277 277 277 276 275 274 274 272 272 271
277 278 279 280 281 281 281 281 281 282 283 283 284 284 285 285 284 284 283 283 282 281 281 281 281 281 280 279 278 278 277 275 274 273 273 272 271 270
278 279 280 282 283 284 284 283 282 283 283 284 285 285 285 285 285 284 284 284 283 282 281 281 281 280 279 279 278 278 276 275 274 273 272 272 271 270
280 282 283 283 284 284 285 285 285 284 284 285 286 286 286 287 286 285 285 285 284 284 282 282 281 280 280 279 278 277 276 275 274 273 272 271 270 270
283 284 285 285 286 286 286 287 287 287 287 286 286 287 287 287 287 287 286 286 285 284 283 283 282 282 281 281 279 278 277 276 275 273 272 271 270 269
285 285 286 287 288 288 288 289 289 289 289 289 288 288 287 287 287 287 287 286 286 285 284 284 283 282 281 280 279 278 277 275 274 273 272 270 270 269
286 287 287 288 288 288 289 289 290 290 290 290 290 290 289 288 288 287 287 286 285 285 284 283 282 282 281 280 278 277 277 276 274 273 272 271 270 269
288 289 290 290 291 291 291 291 291 291 291 291 290 290 289 289 288 288 287 287 286 285 284 283 283 282 282 280 279 277 276 275 273 272 271 270 270 269
289 290 291 292 292 293 293 292 292 292 292 291 291 290 290 289 289 288 288 287 286 286 285 284 283 283 283 282 281 279 277 275 274 273 271 270 270 270
292 293 293 293 293 294 294 294 293 293 293 292 292 291 291 291 290 290 289 288 288 287 287 287 285 284 284 284 283 281 279 278 276 275 274 272 271 270
293 293 294 294 295 295 295 295 295 295 294 294 293 292 292 291 291 290 290 289 289 288 287 287 287 287 287 285 283 281 280 279 277 276 274 273 272 271
295 295 296 296 296 297 297 297 297 296 296 295 294 294 293 292 292 291 291 290 290 290 289 288 288 288 288 287 285 282 280 279 277 276 275 274 272 270
297 298 298 298 298 298 298 298 298 297 297 296 295 295 294 294 293 292 292 292 292 292 291 291 290 289 287 286 285 284 283 280 278 277 276 275 274 271
299 299 299 299 299 298 298 298 298 298 298 297 297 296 296 295 294 293 293 294 294 294 294 293 292 291 290 289 286 284 283 282 281 279 278 277 276 273
300 300 300 300 299 299 299 299 299 299 299 298 298 297 297 296 296 295 295 295 296 296 296 294 293 293 292 291 290 287 285 285 284 283 281 279 276 275
301 301 301 300 300 300 300 300 299 299 299 299 299 299 299 299 298 298 297 297 298 298 297 295 294 294 293 292 292 289 286 287 288 288 286 283 281 279
301 302 302 302 302 301 301 301 299 299 299 299 299 299 300 300 299 299 300 300 300 299 298 296 295 295 294 294 294 294 292 291 289 289 288 286 285 285
Height
5869 5870 5870 5871 5871 5871 5871 5871 5871 5871 5871 5871 5871 5870 5870 5869 5869 5868 5868 5868 5867 5866 5866 5865 5865 5864 5864 5863 5862 5862 5861 5861 5861 5860 5860 5859 5859 5859
5866 5866 5866 5867 5867 5867 5867 5866 5866 5866 5866 5866 5866 5865 5865 5864 5864 5863 5862 5862 5861 5860 5860 5859 5858 5858 5857 5856 5856 5855 5855 5854 5854 5853 5853 5853 5852 5852
5861 5861 5861 5861 5862 5862 5861 5861 5861 5861 5860 5859 5859 5859 5858 5857 5857 5856 5855 5855 5854 5853 5852 5851 5851 5850 5849 5849 5848 5847 5847 5846 5846 5845 5845 5845 5844 5844
5856 5856 5856 5856 5856 5856 5855 5855 5855 5854 5854 5853 5852 5851 5851 5849 5849 5848 5847 5846 5846 5845 5844 5843 5842 5841 5840 5839 5839 5838 5837 5837 5836 5836 5835 5835 5835 5835
5850 5850 5850 5850 5849 5849 5848 5848 5847 5847 5846 5845 5844 5842 5842 5841 5840 5839 5837 5836 5836 5835 5834 5833 5832 5831 5830 5829 5828 5827 5826 5826 5825 5824 5824 5824 5824 5824
5844 5844 5844 5843 5842 5842 5841 5841 5840 5839 5838 5837 5835 5834 5832 5831 5830 5829 5828 5826 5825 5823 5822 5821 5820 5819 5818 5817 5816 5815 5814 5813 5812 5812 5811 5810 5810 5811
5837 5837 5837 5836 5835 5834 5834 5833 5831 5830 5829 5827 5826 5824 5822 5821 5819 5818 5816 5815 5813 5811 5810 5809 5808 5806 5805 5803 5801 5800 5800 5799 5798 5797 5797 5796 5796 5797
5830 5830 5829 5828 5827 5826 5825 5823 5822 5821 5819 5817 5815 5813 5811 5809 5807 5805 5803 5802 5801 5799 5796 5795 5793 5792 5790 5789 5787 5785 5784 5783 5783 5782 5781 5781 5781 5781
5823 5822 5821 5820 5818 5817 5815 5813 5812 5810 5808 5806 5804 5801 5799 5797 5794 5792 5789 5787 5785 5783 5781 5780 5778 5776 5774 5772 5771 5769 5768 5767 5766 5765 5765 5765 5764 5764
5814 5813 5812 5810 5808 5806 5804 5803 5800 5798 5796 5793 5791 5788 5785 5782 5779 5777 5774 5772 5770 5767 5763 5762 5761 5759 5758 5755 5753 5751 5750 5749 5748 5748 5747 5747 5746 5747
5805 5803 5802 5800 5798 5796 5793 5791 5788 5785 5782 5780 5777 5774 5770 5767 5763 5761 5758 5755 5753 5750 5746 5743 5742 5741 5740 5738 5735 5733 5731 5730 5729 5728 5728 5727 5727 5727
5795 5793 5791 5789 5786 5783 5781 5778 5775 5772 5768 5765 5762 5758 5754 5751 5747 5744 5740 5737 5734 5731 5727 5723 5721 5719 5720 5719 5715 5712 5710 5709 5708 5707 5707 5707 5706 5707
5784 5782 5780 5777 5774 5771 5768 5764 5761 5757 5754 5750 5746 5742 5738 5734 5729 5725 5721 5717 5713 5710 5706 5702 5699 5696 5694 5696 5695 5691 5689 5687 5686 5686 5685 5685 5685 5685
5772 5770 5767 5764 5761 5757 5754 5750 5746 5742 5738 5733 5729 5724 5720 5715 5710 5705 5701 5696 5691 5687 5683 5679 5677 5674 5672 5671 5671 5669 5667 5665 5664 5663 5663 5663 5662 5662
5760 5757 5754 5750 5746 5743 5739 5734 5730 5725 5720 5715 5710 5705 5700 5695 5690 5685 5680 5675 5671 5666 5662 5658 5655 5652 5649 5648 5647 5646 5645 5643 5641 5640 5640 5640 5640 5640
5747 5744 5740 5736 5732 5727 5722 5717 5712 5707 5702 5697 5691 5686 5680 5675 5670 5665 5661 5656 5653 5649 5643 5638 5635 5632 5630 5628 5626 5625 5623 5622 5621 5619 5618 5619 5619 5618
5733 5729 5725 5720 5716 5710 5705 5700 5695 5689 5684 5678 5672 5667 5662 5657 5652 5647 5642 5638 5634 5631 5627 5622 5618 5615 5612 5610 5608 5606 5604 5603 5601 5600 5599 5600 5600 5599
5718 5714 5709 5704 5698 5693 5688 5682 5676 5671 5665 5660 5654 5649 5644 5639 5635 5630 5626 5622 5618 5614 5610 5607 5603 5600 5598 5594 5590 5588 5587 5586 5585 5583 5582 5582 5583 5582
5703 5697 5692 5687 5681 5676 5670 5665 5659 5654 5648 5643 5638 5633 5628 5624 5619 5615 5611 5607 5604 5600 5596 5592 5588 5585 5584 5582 5579 5573 5571 5571 5570 5569 5568 5567 5567 5567
5687 5682 5676 5671 5665 5660 5654 5649 5644 5638 5633 5628 5623 5618 5614 5610 5606 5602 5598 5594 5591 5587 5583 5579 5575 5572 5570 5568 5567 5564 5559 5557 5556 5556 5555 5554 5554 5553
5671 5666 5661 5655 5650 5645 5640 5634 5629 5624 5620 5615 5610 5606 5601 5597 5593 5589 5586 5582 5579 5575 5571 5568 5564 5561 5558 5556 5555 5553 5550 5547 5545 5544 5543 5542 5542 5542
5657 5651 5646 5641 5636 5631 5626 5621 5616 5612 5607 5603 5598 5594 5590 5586 5582 5579 5575 5572 5568 5564 5561 5557 5554 5551 5549 5547 5545 5543 5541 5539 5536 5534 5532 5531 5530 5531
5643 5638 5633 5628 5623 5618 5613 5609 5604 5600 5596 5592 5588 5584 5580 5576 5572 5569 5565 5561 5558 5555 5551 5548 5546 5543 5540 5538 5536 5534 5532 5531 5529 5527 5525 5522 5521 5521